Location: Kawakawa
(35.3830°S, 174.0670°E)
Time: 17:18:47
(UTC+13:00)

Explorer 7 - Pass Details

Date: 12 December 2019
Orbit: 485 x 679 km, 50.3° (Epoch: 17 January)

Event Time Altitude Azimuth Distance (km) Brightness Sun altitude
Rises 06:23:06 0° 255° (WSW) 2,592 9.8 3.0°
Reaches altitude 10° 06:26:23 10° 226° (SW) 1,696 9.1 3.6°
Maximum altitude 06:28:10 13° 198° (SSW) 1,527 9.2 3.9°
Drops below altitude 10° 06:29:56 10° 170° (S) 1,695 9.9 4.2°
Sets 06:33:13 0° 140° (SE) 2,587 11.6 4.8°
